Back to catalog

FENGYUN 1C DEB

AliveSSO
NORAD 37435·DEBRIS·🇨🇳 China

Launched May 10, 1999 from Taiyuan Satellite Launch Center

Loading…

Next Passes (next 24 hours)

TLE

FreshSource: Space-Track

Epoch: Sep 12, 2026, 19:37 UTC

1 37435U 99025EHD 26255.81783147  .00001204  00000-0  54512-3 0  9993
2 37435  98.6271 291.8425 0038822 298.5038  61.2233 14.23433255928374

Track FENGYUN 1C DEB in real time with AllMySat

Download on the App Store